Terminal Aerodrome Forecast
Issued by NWS

Home | Current Version | Previous Version | Text Only | Print | Product List | Glossary On
Versions: 1 2 3 4 5 6 7 8 9 10 11 12 13 14 15 16 17 18 19 20 21 22 23 24 25 26 27 28 29 30 31 32 33 34 35 36 37 38 39 40 41
000
FTAK31 PANC 032344
TAFACD
TAF
PACD 032344Z 0400/0424 34011KT 6SM -SHRA SCT022 OVC035
      TEMPO 0400/0404 6SM -SHRA BKN025
     FM040900 27008KT 6SM -RA OVC022
     FM041800 26018KT 6SM -RA OVC018=

USA.gov is the U.S. government's official web portal to all federal, state and local government web resources and services.